[[{"header":{"parameterUnit":"m.s-1","parameterCategory":1,"la1":30.2991,"la2":30.254,"lo1":-89.0895,"lo2":-89.0444,"dy":0.0017,"dx":0.0017,"nx":28,"ny":28,"refTime":"2025-12-26T03:00:00:Z","depth":0,"parameterNumber":2,"parameterNumberName":"U-component_of_WINDS"},"data":[0,0,0,0,0,0,0,0,0,0,0,0,0,0,0,0,0,0,0,0,0,0,0,0,0,0,0,0,0,0,0,0,0,0,0,0,0,0,0,0,0,0,0,0,0,0,0,0,0,0,0,0,0,0,0,0,0,0,-0.069,-0.069,0,-0.0631,-0.063,-0.0629,-0.0584,-0.0584,-0.0583,-0.0583,-0.0521,-0.052,-0.0519,0,0,0,0,0,0,0,0,0,0,0,0,0,-0.0766,-0.0765,-0.069,-0.069,-0.0689,-0.0631,-0.063,-0.0629,-0.0584,-0.0584,-0.0583,-0.0583,-0.0521,-0.052,-0.0518,0,0,0,0,0,0,0,0,0,0,0,0,0,-0.0722,-0.0764,-0.0691,-0.0659,-0.0656,-0.0631,-0.063,-0.0629,-0.0584,-0.0584,-0.0583,-0.0582,-0.0522,-0.052,-0.0518,-0.0519,0,0,-0.0512,-0.0512,0,0,0,0,0,0,0,0,-0.0725,-0.072,-0.0665,-0.0662,-0.0658,-0.0614,-0.0634,-0.0592,-0.0584,-0.0611,-0.0583,-0.0582,-0.0552,-0.0548,-0.0538,-0.0516,-0.0513,-0.0512,-0.0511,-0.051,-0.051,0,0,0,0,0,0,0,-0.0728,-0.0722,-0.0667,-0.0664,-0.066,-0.0649,-0.0642,-0.0626,-0.0586,-0.0609,-0.0606,-0.0599,-0.055,-0.054,-0.0536,-0.0512,-0.0512,-0.0511,-0.051,-0.0509,-0.0489,-0.0489,0,0,0,0,0,0,-0.0736,-0.0725,-0.0669,-0.0665,-0.0691,-0.0648,-0.064,-0.0629,-0.0586,-0.0579,-0.06,-0.0597,-0.0544,-0.0539,-0.0534,-0.0533,-0.051,-0.0509,-0.0508,-0.0488,-0.0489,-0.0489,0,0,0,0,0,0,-0.0738,-0.0731,-0.0671,-0.0694,-0.0685,-0.0647,-0.0635,-0.0628,-0.0617,-0.0579,-0.0572,-0.0596,-0.0543,-0.0537,-0.0523,-0.053,-0.0508,-0.0506,-0.0487,-0.0488,-0.0489,-0.053,0,0,0,0,0,0,-0.074,-0.0732,-0.0732,-0.0694,-0.0684,-0.0661,-0.0635,-0.0627,-0.0614,-0.0611,-0.0574,-0.0568,-0.0542,-0.0526,-0.0521,-0.0527,-0.0505,-0.0487,-0.0488,-0.0489,-0.0527,-0.0532,-0.0535,0,0,0,0,0,-0.0743,-0.0746,-0.0732,-0.0726,-0.0683,-0.0662,-0.0656,-0.0627,-0.0615,-0.0615,-0.059,-0.0569,-0.053,-0.0525,-0.0519,-0.0524,-0.0486,-0.0487,-0.0489,-0.0526,-0.0531,-0.0535,0,0,0,0,0,0,-0.0785,-0.074,-0.0725,-0.0715,-0.0693,-0.0654,-0.0653,-0.0633,-0.0613,-0.0611,-0.0575,-0.0567,-0.0558,-0.0539,-0.0535,-0.0523,-0.0505,-0.0505,-0.0535,-0.054,-0.0544,-0.0549,-0.0503,0,0,0,0,0,-0.0793,-0.0779,-0.0741,-0.0736,-0.0726,-0.0691,-0.0681,-0.066,-0.0635,-0.0626,-0.06,-0.0577,-0.0559,-0.0549,-0.053,-0.0525,-0.0516,-0.0525,-0.0529,-0.0532,-0.0533,-0.0529,-0.0533,-0.0494,-0.0494,-0.0494,0,0,-0.081,-0.0784,-0.0777,-0.0744,-0.0724,-0.0711,-0.0684,-0.0671,-0.0661,-0.0624,-0.061,-0.059,-0.0562,-0.0552,-0.0547,-0.0537,-0.0542,-0.0534,-0.0537,-0.0536,-0.0531,-0.0535,-0.0538,-0.0495,-0.0495,-0.0494,0,0,-0.0834,-0.0812,-0.0806,-0.0787,-0.0757,-0.0735,-0.0733,-0.0698,-0.0684,-0.0669,-0.0641,-0.0629,-0.0599,-0.058,-0.0567,-0.0585,-0.0564,-0.0579,-0.06,-0.0597,-0.06,-0.0603,-0.061,-0.0612,-0.058,-0.058,-0.058,0,-0.0858,-0.0837,-0.0806,-0.0795,-0.0781,-0.0747,-0.0741,-0.0724,-0.069,-0.0682,-0.0671,-0.0634,-0.0612,-0.0599,-0.0603,-0.0593,-0.0591,-0.0584,-0.0602,-0.0605,-0.0606,-0.0613,-0.0615,-0.0582,-0.0582,-0.0582,-0.0582,0,-0.0869,-0.0855,-0.0854,-0.0822,-0.0809,-0.08,-0.0768,-0.0758,-0.0738,-0.0717,-0.0703,-0.0676,-0.0652,-0.0647,-0.0628,-0.063,-0.0625,-0.0609,-0.059,-0.0613,-0.0618,-0.062,-0.0585,-0.0585,-0.0584,-0.0584,0,0,-0.0918,-0.0869,-0.0869,-0.0855,-0.082,-0.0809,-0.0799,-0.0776,-0.0768,-0.0746,-0.0737,-0.0713,-0.0698,-0.0683,-0.0661,-0.0658,-0.0675,-0.0642,-0.0641,-0.065,-0.0677,-0.069,-0.0693,-0.0661,-0.0661,-0.0661,-0.0679,0,-0.0937,-0.0917,-0.0889,-0.0879,-0.0866,-0.0834,-0.0825,-0.0803,-0.0783,-0.0769,-0.0746,-0.073,-0.0711,-0.0702,-0.0698,-0.0674,-0.068,-0.0672,-0.0653,-0.0652,-0.0661,-0.0696,-0.0709,-0.0728,-0.0681,-0.0682,-0.0682,0,-0.0956,-0.0936,-0.0925,-0.0892,-0.0885,-0.0878,-0.0855,-0.0842,-0.0816,-0.0802,-0.0785,-0.0762,-0.075,-0.0733,-0.0717,-0.0712,-0.0702,-0.0689,-0.0689,-0.0687,-0.0669,-0.0695,-0.0732,-0.0736,-0.0685,-0.0684,-0.0684,0,-0.0994,-0.0964,-0.0953,-0.0942,-0.0903,-0.0899,-0.0882,-0.0856,-0.0844,-0.0823,-0.0816,-0.0794,-0.0783,-0.0766,-0.0738,-0.0728,-0.0725,-0.0706,-0.0713,-0.0714,-0.0714,-0.0715,-0.0752,-0.0707,-0.0707,-0.0707,-0.0707,0,-0.1018,-0.1013,-0.097,-0.0964,-0.0957,-0.0924,-0.0919,-0.0899,-0.0876,-0.0866,-0.0836,-0.0827,-0.079,-0.0777,-0.0754,-0.0744,-0.0739,-0.0727,-0.0722,-0.073,-0.0732,-0.0724,-0.0722,-0.0708,-0.0707,-0.0707,-0.0707,0,-0.1059,-0.103,-0.1017,-0.0981,-0.0972,-0.0968,-0.0938,-0.093,-0.0909,-0.0896,-0.0891,-0.0857,-0.0839,-0.0809,-0.0783,-0.0768,-0.0763,-0.0753,-0.0772,-0.0769,-0.0778,-0.0778,-0.0812,-0.0815,-0.0768,-0.0768,-0.0769,0,-0.1077,-0.1072,-0.1036,-0.1027,-0.1011,-0.0997,-0.0985,-0.0953,-0.0942,-0.0912,-0.0909,-0.0889,-0.0872,-0.0846,-0.0819,-0.0799,-0.0788,-0.0801,-0.0785,-0.0794,-0.0789,-0.079,-0.079,-0.0805,-0.0806,-0.0806,-0.0807,0,-0.1112,-0.1098,-0.1081,-0.106,-0.1047,-0.1029,-0.1009,-0.1003,-0.0967,-0.0955,-0.0938,-0.0924,-0.0898,-0.0879,-0.0855,-0.0838,-0.0817,-0.0812,-0.0813,-0.0822,-0.0834,-0.0828,-0.0783,-0.0812,-0.0811,-0.0811,-0.0811,-0.081,-0.1142,-0.1136,-0.111,-0.1093,-0.1075,-0.1058,-0.1049,-0.1027,-0.1011,-0.0988,-0.0969,-0.0953,-0.0928,-0.0894,-0.0878,-0.0865,-0.0855,-0.0856,-0.0856,-0.0857,-0.0861,-0.0836,-0.086,-0.086,-0.086,-0.086,-0.086,0,-0.1176,-0.1158,-0.1142,-0.1116,-0.1103,-0.1084,-0.1061,-0.1051,-0.1037,-0.1016,-0.0999,-0.0979,-0.0961,-0.0932,-0.0912,-0.0907,-0.0897,-0.0903,-0.0903,-0.09,-0.0871,-0.0872,-0.0911,-0.0911,-0.0911,-0.0911,-0.0911,-0.0911,-0.1192,-0.1182,-0.1165,-0.1146,-0.1128,-0.1112,-0.1101,-0.1084,-0.1067,-0.1046,-0.1031,-0.1012,-0.0988,-0.0966,-0.0948,-0.094,-0.0934,-0.0944,-0.0933,-0.0906,-0.0902,-0.0897,-0.0898,-0.0942,-0.0942,-0.0963,-0.0963,-0.0963]},{"header":{"parameterUnit":"m.s-1","parameterCategory":1,"la1":30.2991,"la2":30.254,"lo1":-89.0895,"lo2":-89.0444,"dy":0.0017,"dx":0.0017,"nx":28,"ny":28,"refTime":"2025-12-26T03:00:00:Z","depth":0,"parameterNumber":3,"parameterNumberName":"V-component_of_WINDS"},"data":[0,0,0,0,0,0,0,0,0,0,0,0,0,0,0,0,0,0,0,0,0,0,0,0,0,0,0,0,0,0,0,0,0,0,0,0,0,0,0,0,0,0,0,0,0,0,0,0,0,0,0,0,0,0,0,0,0,0,1.9843,1.9842,0,1.9776,1.9775,1.9775,1.9722,1.9722,1.9721,1.9721,1.9649,1.9647,1.9646,0,0,0,0,0,0,0,0,0,0,0,0,0,1.9924,1.9922,1.9843,1.9842,1.9841,1.9776,1.9775,1.9774,1.9722,1.9722,1.9721,1.972,1.9649,1.9648,1.9646,0,0,0,0,0,0,0,0,0,0,0,0,0,1.9876,1.9922,1.9843,1.9808,1.9804,1.9776,1.9775,1.9774,1.9722,1.9722,1.9721,1.972,1.965,1.9648,1.9646,1.9647,0,0,1.9639,1.9638,0,0,0,0,0,0,0,0,1.9879,1.9873,1.9814,1.981,1.9806,1.9757,1.9777,1.9731,1.9723,1.9753,1.9721,1.972,1.9685,1.968,1.9669,1.9644,1.9641,1.9639,1.9637,1.9637,1.9636,0,0,0,0,0,0,0,1.9882,1.9875,1.9816,1.9813,1.9808,1.9794,1.9787,1.9768,1.9724,1.975,1.9747,1.974,1.9683,1.9671,1.9667,1.964,1.9639,1.9637,1.9636,1.9635,1.9614,1.9615,0,0,0,0,0,0,1.9891,1.9879,1.9819,1.9814,1.9841,1.9793,1.9785,1.9773,1.9724,1.9716,1.974,1.9737,1.9675,1.967,1.9664,1.9664,1.9637,1.9635,1.9633,1.9613,1.9614,1.9615,0,0,0,0,0,0,1.9893,1.9886,1.9821,1.9845,1.9836,1.9793,1.978,1.9772,1.9761,1.9716,1.9708,1.9737,1.9674,1.9667,1.9652,1.9661,1.9634,1.9632,1.9612,1.9613,1.9614,1.9663,0,0,0,0,0,0,1.9896,1.9887,1.9888,1.9846,1.9835,1.9811,1.9781,1.9771,1.9757,1.9753,1.9711,1.9703,1.9673,1.9656,1.965,1.9657,1.963,1.9611,1.9613,1.9614,1.966,1.9666,1.967,0,0,0,0,0,1.9899,1.9903,1.9888,1.9881,1.9835,1.9812,1.9806,1.9772,1.9758,1.9758,1.973,1.9704,1.9661,1.9655,1.9648,1.9654,1.9611,1.9612,1.9614,1.9658,1.9664,1.967,0,0,0,0,0,0,1.9945,1.9897,1.988,1.9871,1.9846,1.9803,1.9802,1.978,1.9757,1.9754,1.9712,1.9703,1.9693,1.9672,1.9666,1.9654,1.9632,1.9633,1.9668,1.9674,1.9679,1.9684,1.9628,0,0,0,0,0,1.9955,1.9941,1.9899,1.9895,1.9884,1.9846,1.9834,1.9811,1.9783,1.9772,1.9742,1.9716,1.9696,1.9684,1.9663,1.9657,1.9647,1.9658,1.9663,1.9667,1.9668,1.9665,1.9669,1.962,1.962,1.962,0,0,1.9974,1.9946,1.9939,1.9904,1.9882,1.9868,1.9837,1.9823,1.9812,1.9769,1.9754,1.9732,1.9699,1.9689,1.9683,1.9671,1.968,1.9669,1.9673,1.9671,1.9667,1.9672,1.9676,1.9622,1.9621,1.9621,0,0,2.0002,1.9979,1.9974,1.9953,1.9921,1.9896,1.9895,1.9856,1.984,1.9824,1.9792,1.9778,1.9745,1.9724,1.9708,1.973,1.9706,1.9725,1.975,1.9747,1.9751,1.9754,1.9763,1.9767,1.9726,1.9726,1.9726,0,2.0029,2.0008,1.9974,1.9963,1.9949,1.9911,1.9906,1.9887,1.9849,1.984,1.9827,1.9786,1.9761,1.9746,1.9752,1.9741,1.9738,1.9729,1.9753,1.9756,1.9759,1.9767,1.977,1.9728,1.9728,1.9728,1.9727,0,2.0044,2.003,2.003,1.9997,1.9982,1.9974,1.9938,1.9928,1.9906,1.9882,1.9867,1.9836,1.981,1.9804,1.9782,1.9787,1.9781,1.9761,1.9739,1.9767,1.9773,1.9776,1.9732,1.9731,1.973,1.973,0,0,2.0098,2.0048,2.0048,2.0034,1.9996,1.9984,1.9975,1.995,1.9942,1.9918,1.9909,1.9883,1.9865,1.9848,1.9823,1.9821,1.9842,1.9802,1.98,1.9811,1.9847,1.9862,1.9866,1.9826,1.9826,1.9826,1.985,0,2.0121,2.0103,2.0073,2.0064,2.0051,2.0016,2.0008,1.9984,1.9962,1.9947,1.9921,1.9904,1.9882,1.9871,1.9867,1.984,1.9849,1.9838,1.9817,1.9817,1.9827,1.9869,1.9885,1.9909,1.9852,1.9852,1.9853,0,2.0144,2.0125,2.0116,2.0081,2.0074,2.0068,2.0043,2.003,2.0002,1.9986,1.9968,1.9942,1.993,1.991,1.9893,1.9886,1.9876,1.9861,1.9861,1.9858,1.9837,1.9868,1.9915,1.9919,1.9856,1.9856,1.9856,0,2.0187,2.0157,2.0148,2.0136,2.0095,2.0092,2.0074,2.0046,2.0034,2.0012,2.0004,1.9981,1.9968,1.9951,1.9919,1.9907,1.9906,1.9883,1.9893,1.9894,1.9894,1.9895,1.9941,1.9887,1.9887,1.9886,1.9886,0,2.0215,2.0211,2.0167,2.0161,2.0156,2.0121,2.0117,2.0096,2.0072,2.0061,2.0029,2.002,1.9978,1.9964,1.9939,1.9929,1.9923,1.991,1.9904,1.9914,1.9915,1.9906,1.9904,1.9887,1.9887,1.9887,1.9887,0,2.0261,2.0231,2.0219,2.0182,2.0173,2.0171,2.0139,2.0132,2.0109,2.0096,2.0091,2.0054,2.0036,2.0003,1.9975,1.9958,1.9954,1.9942,1.9964,1.996,1.9973,1.9972,2.0015,2.0019,1.9962,1.9963,1.9963,0,2.0281,2.0278,2.0242,2.0233,2.0218,2.0204,2.0192,2.0158,2.0146,2.0116,2.0113,2.0093,2.0075,2.0048,2.0018,1.9997,1.9985,2.0001,1.9981,1.9992,1.9986,1.9987,1.9987,2.0006,2.0007,2.0007,2.0008,0,2.0321,2.0307,2.0292,2.0272,2.0259,2.0241,2.0221,2.0216,2.0177,2.0166,2.0148,2.0135,2.0108,2.0088,2.0063,2.0044,2.002,2.0015,2.0016,2.0026,2.004,2.0034,1.9977,2.0014,2.0013,2.0013,2.0012,2.0012,2.0355,2.0351,2.0326,2.031,2.0292,2.0275,2.0268,2.0244,2.0229,2.0206,2.0186,2.017,2.0144,2.0108,2.0091,2.0078,2.0066,2.0068,2.0068,2.0069,2.0074,2.0042,2.0073,2.0073,2.0072,2.0072,2.0072,0,2.0394,2.0377,2.0363,2.0337,2.0325,2.0305,2.0283,2.0274,2.0261,2.0239,2.0222,2.0203,2.0184,2.0154,2.0133,2.0128,2.0117,2.0124,2.0124,2.0121,2.0085,2.0086,2.0134,2.0134,2.0134,2.0134,2.0134,2.0134,2.0413,2.0406,2.0389,2.0373,2.0355,2.034,2.033,2.0314,2.0296,2.0276,2.0262,2.0242,2.0217,2.0194,2.0177,2.0168,2.0162,2.0173,2.0161,2.0129,2.0123,2.0117,2.0119,2.0172,2.0172,2.0198,2.0198,2.0199]}]]